Station MBNN7 - Masonboro Island, NC (MSNB_N) Image indicating link to RSS feed of recent meteorological observations for station MBNN7


Conditions at MBNN7 as of
(1:00 pm EDT)
1700 GMT on 05/25/2024:
     

Click on the graph icon in the table below to see a time series plot of the last five days of that observation.

5-day plot - Wind Direction Wind Direction (WDIR): S ( 180 deg true )
5-day plot - Wind Speed Wind Speed (WSPD): 7 kts
5-day plot - Wind Gust Wind Gust (GST): 10 kts
5-day plot - Atmospheric Pressure Atmospheric Pressure (PRES):29.85 in
5-day plot - Pressure Tendency Pressure Tendency (PTDY):-0.03 in ( Falling )
5-day plot - Air Temperature Air Temperature (ATMP): 79.5 °F
5-day plot - Dew Point Dew Point (DEWP): 74.7 °F
5-day plot - Heat Index Heat Index (HEAT): 83.8 °F
5-day plot - Wind Speed at 10 Meters Wind Speed at 10 meters (WSPD10M): 8 kts
5-day plot - Wind Speed at 20 Meters Wind Speed at 20 meters (WSPD20M): 10 kts
5-day plot -  Wind Speed, Wind Gust and Atmospheric Pressure Combined plot of Wind Speed, Gust, and Air Pressure
Previous observations
TIME
(EDT)
5-day plot - Wind Direction
WDIR
 
5-day plot - Wind Speed
WSPD
kts
5-day plot - Wind Gust
GST
kts
5-day plot - Wave Height
WVHT
ft
5-day plot - Dominant Wave Period
DPD
sec
5-day plot - Average Wave Period
APD
sec
5-day plot - Mean Wave Direction
MWD
 
5-day plot - Atmospheric Pressure
PRES
in
5-day plot - Pressure Tendency
PTDY
in
5-day plot - Air Temperature
ATMP
°F
5-day plot - Water Temperature
WTMP
°F
5-day plot - Dew Point
DEWP
°F
5-day plot - Salinity
SAL
psu
5-day plot - Visibility
VIS
nmi
5-day plot - Tide (above MLLW)
TIDE
ft
2024-05-25 12:54 pm S 7 9----29.85- 80.8- 74.8---
2024-05-25 12:48 pmSSE 4 7----29.86- 81.1- 74.8---
2024-05-25 12:42 pm S 5 7----29.85- 80.2- 74.3---
2024-05-25 12:36 pm S 6 7----29.85- 80.2- 74.7---
2024-05-25 12:30 pm S 5 8----29.85- 80.6- 74.8---
2024-05-25 12:24 pm S 5 7----29.86- 80.8- 74.7---
2024-05-25 12:18 pm S 5 6----29.86- 80.8- 74.5---
2024-05-25 12:12 pm S 5 7----29.86- 80.6- 74.7---
2024-05-25 12:06 pmSSE 5 7----29.86- 81.1- 75.0---
2024-05-25 12:00 pmSSE 4 7----29.86-0.04 81.0- 74.7---
2024-05-25 11:54 amSSE 4 6----29.86- 80.6- 74.3---
2024-05-25 11:48 amSSE 4 6----29.86- 80.4- 73.8---
2024-05-25 11:42 am SE 3 6----29.87- 81.9- 75.0---
2024-05-25 11:36 am SE 3 6----29.87- 82.6- 75.4---
2024-05-25 11:30 am SE 4 6----29.88- 82.9- 75.2---
2024-05-25 11:24 amSSE 3 5----29.89- 84.7- 74.3---
2024-05-25 11:18 am N 2 4----29.90- 85.6- 70.5---
2024-05-25 11:12 amNNW 3 5----29.89- 84.7- 70.9---
2024-05-25 11:06 amNNW 4 8----29.89- 84.7- 71.2---
2024-05-25 11:00 am NW 4 6----29.89+0.00 84.2- 70.5---
2024-05-25 10:54 am NW 3 6----29.89- 84.0- 72.0---
2024-05-25 10:48 am NW 3 5----29.88- 82.9- 71.8---
2024-05-25 10:42 am NW 3 6----29.88- 82.4- 71.6---
2024-05-25 10:36 am NW 4 7----29.88- 82.2- 71.6---
2024-05-25 10:30 amNNW 4 6----29.89- 82.6- 72.5---
2024-05-25 10:24 amNNW 3 7----29.89- 82.2- 72.7---
2024-05-25 10:18 am NW 3 6----29.89- 81.7- 72.7---
2024-05-25 10:12 am NW 3 5----29.88- 81.1- 72.7---
2024-05-25 10:06 am NW 3 7----29.88- 80.8- 72.3---
2024-05-25 10:00 am NW 4 6----29.88+0.01 80.6- 72.3---
2024-05-25 09:54 am NW 4 6----29.88- 80.2- 72.1---
2024-05-25 09:48 amWNW 4 6----29.88- 79.9- 72.0---
2024-05-25 09:42 amWNW 4 5----29.88- 79.9- 72.0---
2024-05-25 09:36 am NW 4 6----29.88- 79.7- 72.3---
2024-05-25 09:30 am NW 3 6----29.87- 79.5- 72.3---
2024-05-25 09:24 amNNW 4 6----29.87- 79.3- 72.7---
2024-05-25 09:18 am NW 3 6----29.88- 79.0- 72.5---
2024-05-25 09:12 am NW 3 5----29.88- 78.8- 72.3---
2024-05-25 09:06 am NW 3 5----29.89- 78.6- 72.3---
2024-05-25 09:00 am NW 3 6----29.90+0.06 78.1- 72.3---
2024-05-25 08:54 amWNW 4 5----29.89- 77.4- 72.3---
2024-05-25 08:48 amWNW 3 6----29.88- 76.5- 72.0---
2024-05-25 08:42 amWNW 3 6----29.88- 75.9- 71.8---
2024-05-25 08:36 amWNW 3 6----29.88- 75.4- 71.6---
2024-05-25 08:30 amWNW 4 6----29.88- 75.2- 71.6---
2024-05-25 08:24 amWNW 4 6----29.87- 74.8- 71.6---
2024-05-25 08:18 amWNW 3 5----29.87- 74.8- 71.4---
2024-05-25 08:12 amWNW 3 5----29.88- 74.7- 71.4---
2024-05-25 08:06 amWNW 3 6----29.88- 74.3- 71.2---
2024-05-25 08:00 amWNW 3 6----29.88+0.05 74.1- 71.4---
2024-05-25 07:54 amWNW 3 5----29.88- 73.9- 71.4---
2024-05-25 07:48 amWNW 3 5----29.88- 73.6- 71.4---
2024-05-25 07:42 am NW 3 5----29.88- 73.4- 71.2---
2024-05-25 07:36 amWNW 3 5----29.88- 73.0- 71.2---
2024-05-25 07:30 am NW 3 4----29.88- 72.9- 71.1---
2024-05-25 07:24 amWNW 3 5----29.87- 72.7- 70.9---
2024-05-25 07:18 am NW 3 5----29.87- 72.7- 70.9---
2024-05-25 07:12 amNNW 2 4----29.86- 72.5- 70.7---
2024-05-25 07:06 am NW 2 4----29.87- 72.5- 70.7---
2024-05-25 07:00 am NW 3 5----29.87+0.05 72.3- 70.5---
2024-05-25 06:54 am NW 3 5----29.86- 72.3- 70.5---
2024-05-25 06:48 am NW 3 5----29.86- 72.3- 70.5---
2024-05-25 06:42 am NW 3 4----29.85- 72.3- 70.9---
2024-05-25 06:36 am NW 3 5----29.85- 72.3- 70.9---
2024-05-25 06:30 am NW 2 4----29.85- 72.3- 70.9---
2024-05-25 06:24 amNNW 2 4----29.85- 72.3- 70.9---
2024-05-25 06:18 am NW 3 6----29.85- 72.3- 70.9---
2024-05-25 06:12 am NW 3 5----29.85- 72.3- 70.9---
2024-05-25 06:06 amNNW 3 6----29.85- 72.3- 70.9---
2024-05-25 06:00 am NW 4 6----29.84+0.03 72.1- 70.7---
2024-05-25 05:54 am NW 4 7----29.84- 72.1- 70.7---
2024-05-25 05:48 am NW 3 5----29.84- 72.1- 70.7---
2024-05-25 05:42 am NW 3 5----29.83- 72.1- 70.7---
2024-05-25 05:36 amWNW 3 6----29.83- 72.1- 70.7---
2024-05-25 05:30 amWNW 3 6----29.83- 72.3- 70.7---
2024-05-25 05:24 amWNW 4 7----29.84- 72.3- 70.9---
2024-05-25 05:18 amWNW 4 7----29.84- 72.5- 71.1---
2024-05-25 05:12 amWNW 4 7----29.83- 72.5- 71.1---
2024-05-25 05:06 amWNW 4 6----29.83- 72.5- 71.1---
2024-05-25 05:00 amWNW 4 5----29.83+0.03 72.5- 71.1---
2024-05-25 04:54 amWNW 4 6----29.83- 72.5- 71.1---
2024-05-25 04:48 am NW 3 5----29.83- 72.7- 71.2---
2024-05-25 04:42 am NW 3 5----29.83- 72.7- 71.2---
2024-05-25 04:36 amWNW 3 5----29.83- 72.7- 71.2---
2024-05-25 04:30 amWNW 3 6----29.83- 72.7- 71.2---
2024-05-25 04:24 amWNW 3 5----29.83- 72.7- 71.2---
2024-05-25 04:18 amWNW 3 5----29.83- 72.9- 71.4---
2024-05-25 04:12 amWNW 3 5----29.82- 72.7- 71.2---
2024-05-25 04:06 amWNW 3 5----29.82- 72.7- 71.2---
2024-05-25 04:00 amWNW 3 5----29.82+0.00 72.7- 71.2---
2024-05-25 03:54 am NW 2 4----29.82- 72.9- 71.4---
2024-05-25 03:48 am NW 2 5----29.81- 73.0- 71.6---
2024-05-25 03:42 am NW 3 4----29.81- 73.0- 71.8---
2024-05-25 03:36 amWNW 3 4----29.81- 73.0- 71.8---
2024-05-25 03:30 amWNW 3 4----29.81- 73.0- 71.8---
2024-05-25 03:24 amWNW 3 5----29.81- 73.0- 72.0---
2024-05-25 03:18 amWNW 3 5----29.81- 73.2- 72.0---
2024-05-25 03:12 amWNW 3 5----29.81- 73.2- 72.0---
2024-05-25 03:06 amWNW 3 5----29.81- 73.2- 72.1---
2024-05-25 03:00 amWNW 3 5----29.81-0.02 73.4- 72.1---
2024-05-25 02:54 amWNW 4 6----29.81- 73.4- 72.3---
2024-05-25 02:48 amWNW 4 6----29.81- 73.6- 72.3---
2024-05-25 02:42 amWNW 3 6----29.80- 73.6- 72.3---
2024-05-25 02:36 am W 3 6----29.80- 73.6- 72.5---
2024-05-25 02:30 am W 3 6----29.80- 73.8- 72.5---
2024-05-25 02:24 am W 3 5----29.80- 73.8- 72.3---
2024-05-25 02:18 am W 2 4----29.80- 73.9- 72.5---
2024-05-25 02:12 amWSW 2 5----29.81- 73.9- 72.5---
2024-05-25 02:06 amWSW 3 4----29.81- 74.1- 72.5---
2024-05-25 02:00 am W 2 4----29.81-0.04 74.1- 72.7---
2024-05-25 01:54 amWNW 2 4----29.81- 74.1- 72.7---
2024-05-25 01:48 am NW 2 4----29.81- 74.3- 72.9---
2024-05-25 01:42 am NW 2 4----29.81- 74.5- 72.9---
2024-05-25 01:36 am NW 3 5----29.81- 74.5- 73.0---
2024-05-25 01:30 am NW 3 6----29.81- 74.5- 73.0---
2024-05-25 01:24 am NW 3 5----29.82- 74.5- 73.0---
2024-05-25 01:18 amWNW 3 5----29.82- 74.5- 73.0---
2024-05-25 01:12 amWNW 3 4----29.82- 74.5- 73.0---
2024-05-25 01:06 amWNW 2 4----29.82- 74.7- 73.0---
2024-05-25 01:00 am NW 2 3----29.83-0.01 74.7- 72.9---
2024-05-25 12:54 am NW 2 3----29.83- 74.7- 72.9---
2024-05-25 12:48 am N 2 3----29.83- 74.7- 72.9---
2024-05-25 12:42 am N 2 3----29.83- 74.8- 73.0---
2024-05-25 12:36 am N 3 5----29.83- 74.8- 73.0---
2024-05-25 12:30 am N 3 5----29.83- 75.0- 73.0---
2024-05-25 12:24 amNNW 2 4----29.83- 75.2- 73.0---
2024-05-25 12:18 am N 3 5----29.83- 75.2- 73.0---
2024-05-25 12:12 am N 3 5----29.83- 75.2- 73.2---
2024-05-25 12:06 am N 3 5----29.84- 75.6- 73.4---
2024-05-25 12:00 amNNW 3 5----29.83+0.01 75.6- 73.2---
2024-05-24 11:54 pm NW 3 5----29.83- 75.6- 73.2---
2024-05-24 11:48 pmWNW 4 7----29.83- 75.7- 73.2---
2024-05-24 11:42 pm W 4 7----29.83- 75.7- 73.2---
2024-05-24 11:36 pm W 4 6----29.83- 75.7- 73.2---
2024-05-24 11:30 pm W 4 8----29.83- 75.9- 73.4---
2024-05-24 11:24 pm W 4 7----29.84- 75.9- 73.2---
2024-05-24 11:18 pm W 5 8----29.84- 76.1- 73.4---
2024-05-24 11:12 pmWNW 4 7----29.84- 76.3- 73.4---
2024-05-24 11:06 pm W 4 8----29.84- 76.3- 73.2---
2024-05-24 11:00 pm W 5 9----29.84+0.04 76.5- 73.4---
2024-05-24 10:54 pm W 5 10----29.84- 76.5- 73.4---
2024-05-24 10:48 pm W 5 9----29.85- 76.6- 73.4---
2024-05-24 10:42 pm W 5 9----29.85- 76.6- 73.2---
2024-05-24 10:36 pm W 6 10----29.85- 76.6- 73.4---
2024-05-24 10:30 pm W 5 10----29.84- 76.8- 73.8---
2024-05-24 10:24 pm W 7 11----29.84- 76.6- 73.6---
2024-05-24 10:18 pm W 6 11----29.83- 76.6- 73.6---
2024-05-24 10:12 pm W 7 11----29.83- 76.8- 73.6---
2024-05-24 10:06 pm W 7 12----29.83- 76.8- 73.8---
2024-05-24 10:00 pm W 7 12----29.83+0.03 76.8- 73.8---
2024-05-24 09:54 pm W 8 13----29.83- 77.0- 73.9---
2024-05-24 09:48 pm W 9 16----29.82- 77.0- 73.9---
2024-05-24 09:42 pm W 9 16----29.82- 77.2- 73.9---
2024-05-24 09:36 pm W 10 16----29.82- 77.2- 74.1---
2024-05-24 09:30 pm W 8 14----29.82- 77.2- 74.1---
2024-05-24 09:24 pm W 7 13----29.82- 77.2- 73.8---
2024-05-24 09:18 pm W 7 12----29.83- 77.4- 73.9---
2024-05-24 09:12 pm W 8 14----29.83- 77.4- 73.9---
2024-05-24 09:06 pm W 7 13----29.83- 77.4- 73.9---
2024-05-24 09:00 pmWSW 5 10----29.83+0.04 77.5- 74.1---
2024-05-24 08:54 pmWSW 6 10----29.83- 77.4- 73.9---
2024-05-24 08:48 pmWSW 6 10----29.83- 77.4- 74.1---
2024-05-24 08:42 pmWSW 7 12----29.82- 77.4- 74.3---
2024-05-24 08:36 pmWSW 8 12----29.83- 77.4- 74.5---
2024-05-24 08:30 pmWSW 9 13----29.82- 77.4- 74.5---
2024-05-24 08:24 pm SW 8 14----29.82- 76.8- 74.5---
2024-05-24 08:18 pm SW 6 11----29.81- 76.3- 74.1---
2024-05-24 08:12 pmSSW 5 11----29.81- 75.7- 73.6---
2024-05-24 08:06 pmSSW 6 12----29.81- 75.7- 73.6---
2024-05-24 08:00 pmSSW 6 13----29.81+0.02 75.9- 73.4---
2024-05-24 07:54 pmSSW 6 13----29.81- 76.1- 73.6---
2024-05-24 07:48 pmSSW 6 13----29.80- 76.3- 73.6---
2024-05-24 07:42 pmSSW 7 15----29.80- 76.5- 73.6---
2024-05-24 07:36 pmSSW 7 17----29.80- 77.0- 73.6---
2024-05-24 07:30 pmSSW 6 12----29.80- 77.7- 73.2---
2024-05-24 07:24 pmSSW 6 14----29.80- 78.4- 72.3---
2024-05-24 07:18 pmSSW 7 13----29.80- 78.1- 71.1---
2024-05-24 07:12 pmSSW 7 15----29.81- 77.7- 70.3---
2024-05-24 07:06 pmSSW 6 13----29.81- 77.5- 70.2---
2024-05-24 07:00 pmSSW 7 13----29.80+0.00 78.8- 70.9---
2024-05-24 06:54 pm SW 7 13----29.80- 79.5- 71.2---
2024-05-24 06:48 pm SW 7 14----29.79- 78.4- 68.7---
2024-05-24 06:42 pm SW 10 15----29.79- 77.4- 67.6---
2024-05-24 06:36 pm SW 9 16----29.80- 77.2- 70.7---
2024-05-24 06:30 pm SW 8 13----29.80- 77.9- 74.3---
2024-05-24 06:24 pmSSW 4 9----29.81- 77.9- 74.8---
2024-05-24 06:18 pmSSW 4 9----29.82- 77.9- 75.2---
2024-05-24 06:12 pmSSW 3 8----29.81- 77.5- 75.4---
2024-05-24 06:06 pmSSW 4 9----29.81- 77.4- 75.2---
2024-05-24 06:00 pmSSW 6 10----29.79-0.04 76.6- 74.7---
2024-05-24 05:54 pm SW 7 12----29.78- 76.8- 74.7---
2024-05-24 05:48 pmSSW 7 12----29.76- 76.6- 74.5---
2024-05-24 05:42 pmSSW 5 13----29.76- 76.8- 74.3---
2024-05-24 05:36 pmSSW 6 12----29.76- 76.6- 74.3---
2024-05-24 05:30 pmSSW 8 12----29.76- 76.8- 74.3---
2024-05-24 05:24 pm S 9 16----29.76- 77.2- 74.3---
2024-05-24 05:18 pmSSW 7 15----29.78- 77.7- 74.7---
2024-05-24 05:12 pmSSW 8 16----29.78- 78.1- 74.8---
2024-05-24 05:06 pmSSW 8 15----29.78- 78.1- 74.7---
2024-05-24 05:00 pmSSW 7 14----29.79-0.07 78.3- 75.0---
2024-05-24 04:54 pmSSW 8 15----29.78- 78.1- 74.8---
2024-05-24 04:48 pmSSW 7 15----29.78- 78.6- 74.8---
2024-05-24 04:42 pmSSW 8 15----29.80- 79.2- 75.2---
2024-05-24 04:36 pmSSW 7 14----29.80- 79.7- 75.2---
2024-05-24 04:30 pmSSW 6 17----29.80- 79.2- 75.4---
2024-05-24 04:24 pm S 9 15----29.79- 77.9- 75.0---
2024-05-24 04:18 pm S 12 16----29.79- 77.5- 74.3---
2024-05-24 04:12 pm S 10 16----29.80- 78.8- 74.8---
2024-05-24 04:06 pm S 9 15----29.80- 79.2- 74.8---
2024-05-24 04:00 pm S 9 15----29.80-0.07 79.3- 75.0---
2024-05-24 03:54 pmSSW 8 13----29.81- 79.5- 75.2---
2024-05-24 03:48 pm S 9 14----29.81- 79.5- 75.0---
2024-05-24 03:42 pmSSW 8 14----29.81- 80.1- 75.0---
2024-05-24 03:36 pmSSW 7 13----29.82- 80.6- 75.2---
2024-05-24 03:30 pmSSW 7 15----29.82- 80.1- 75.0---
2024-05-24 03:24 pmSSW 9 16----29.82- 79.9- 75.0---
2024-05-24 03:18 pmSSW 8 16----29.82- 79.7- 75.0---
2024-05-24 03:12 pmSSW 10 18----29.82- 79.2- 74.8---
2024-05-24 03:06 pm S 10 16----29.82- 79.2- 74.7---
2024-05-24 03:00 pm S 10 16----29.83-0.06 79.3- 74.8---
2024-05-24 02:54 pmSSW 9 16----29.83- 79.7- 74.8---
2024-05-24 02:48 pmSSW 7 14----29.83- 79.9- 75.0---
2024-05-24 02:42 pmSSW 7 16----29.83- 79.9- 75.2---
2024-05-24 02:36 pmSSW 7 15----29.84- 79.7- 75.2---
2024-05-24 02:30 pmSSW 8 14----29.84- 79.7- 75.0---
2024-05-24 02:24 pmSSW 8 16----29.84- 79.7- 75.0---
2024-05-24 02:18 pmSSW 9 15----29.84- 79.7- 74.8---
2024-05-24 02:12 pmSSW 7 14----29.85- 80.1- 75.2---
2024-05-24 02:06 pmSSW 8 16----29.85- 79.5- 74.8---
2024-05-24 02:00 pmSSW 8 14----29.85-0.04 79.5- 74.8---
2024-05-24 01:54 pmSSW 8 14----29.85- 79.5- 74.7---
2024-05-24 01:48 pm S 9 16----29.85- 79.7- 74.7---
2024-05-24 01:42 pmSSW 9 15----29.86- 80.1- 74.7---
2024-05-24 01:36 pmSSW 7 16----29.87- 80.2- 74.7---
2024-05-24 01:30 pmSSW 7 13----29.87- 80.1- 74.8---
2024-05-24 01:24 pmSSW 8 16----29.86- 79.5- 74.3---
2024-05-24 01:18 pmSSW 8 14----29.87- 79.5- 74.1---
2024-05-24 01:12 pmSSW 8 15----29.87- 79.3- 73.9---
2024-05-24 01:06 pmSSW 7 14----29.87- 79.5- 74.1---
2024-05-24 01:00 pmSSW 8 14----29.87-0.05 79.5- 74.1---
2024-05-24 12:54 pmSSW 7 13----29.87- 79.2- 74.1---